| time (UTC) | temp F | wind direction | speed knots | gust knots | rain 1hr in | rain 24hr in | rain mn in | humidity % | barometer mb |
| 20260504204522 | 78 | 117 | 1.7 | 6.1 | 0.00 | 0.00 | 0.00 | 41 | 1015.4 |
| 20260504203031 | 78 | 219 | 2.6 | 6.1 | 0.00 | 0.00 | 0.00 | 39 | 1015.8 |
| 20260504201512 | 78 | 221 | 1.7 | 5.2 | 0.00 | 0.00 | 0.00 | 40 | 1016.0 |
| 20260504200016 | 78 | 214 | 4.3 | 7.8 | 0.00 | 0.00 | 0.00 | 39 | 1016.3 |
| 20260504194521 | 78 | 113 | 1.7 | 7.0 | 0.00 | 0.00 | 0.00 | 39 | 1016.7 |
| 20260504193021 | 78 | 283 | 2.6 | 7.8 | 0.00 | 0.00 | 0.00 | 38 | 1016.8 |
| 20260504191507 | 78 | 115 | 1.7 | 8.7 | 0.00 | 0.00 | 0.00 | 43 | 1016.8 |
| 20260504190010 | 78 | 221 | 0.9 | 7.8 | 0.00 | 0.00 | 0.00 | 45 | 1017.0 |
| 20260504184516 | 78 | 127 | 0.9 | 7.0 | 0.00 | 0.00 | 0.00 | 44 | 1017.1 |
| 20260504183023 | 78 | 221 | 4.3 | 8.7 | 0.00 | 0.00 | 0.00 | 41 | 1017.1 |
| 20260504181527 | 79 | 99 | 1.7 | 3.5 | 0.00 | 0.00 | 0.00 | 40 | 1017.3 |
| 20260504180010 | 79 | 153 | 2.6 | 7.0 | 0.00 | 0.00 | 0.00 | 42 | 1017.5 |
| 20260504174511 | 78 | 259 | 1.7 | 6.1 | 0.00 | 0.00 | 0.00 | 42 | 1017.5 |
| 20260504173026 | 78 | 219 | 1.7 | 5.2 | 0.00 | 0.00 | 0.00 | 39 | 1017.4 |
| 20260504171523 | 77 | 202 | 1.7 | 4.3 | 0.00 | 0.00 | 0.00 | 41 | 1017.5 |
| 20260504081515 | 55 | 132 | 0.0 | 0.0 | 0.00 | 0.00 | 0.00 | 85 | 1017.7 |
| 20260504050014 | 60 | 132 | 0.0 | 0.0 | 0.00 | 0.00 | 0.00 | 71 | 1019.1 |
| 20260504044532 | 61 | 132 | 0.0 | 0.9 | 0.00 | 0.00 | 0.00 | 68 | 1019.2 |
| 20260504043022 | 61 | 229 | 0.0 | 0.9 | 0.00 | 0.00 | 0.00 | 68 | 1019.4 |
| 20260504041525 | 60 | 243 | 0.0 | 0.9 | 0.00 | 0.00 | 0.00 | 69 | 1019.3 |
| 20260504040008 | 59 | 203 | 0.0 | 1.7 | 0.00 | 0.00 | 0.00 | 72 | 1019.2 |
| 20260504034514 | 59 | 137 | 0.0 | 0.9 | 0.00 | 0.00 | 0.00 | 77 | 1019.3 |
| 20260504033027 | 59 | 136 | 0.0 | 0.0 | 0.00 | 0.00 | 0.00 | 77 | 1019.3 |
| 20260504031523 | 60 | 136 | 0.0 | 0.0 | 0.00 | 0.00 | 0.00 | 74 | 1019.3 |
| 20260504030027 | 60 | 136 | 0.0 | 0.0 | 0.00 | 0.00 | 0.00 | 73 | 1019.2 |
| 20260504024516 | 60 | 136 | 0.0 | 0.9 | 0.00 | 0.00 | 0.00 | 72 | 1019.1 |
| 20260504023014 | 61 | 216 | 0.0 | 0.0 | 0.00 | 0.00 | 0.00 | 70 | 1019.0 |
| 20260504021533 | 61 | 215 | 0.0 | 0.0 | 0.00 | 0.00 | 0.00 | 68 | 1018.8 |
| 20260504020023 | 61 | 216 | 0.0 | 0.0 | 0.00 | 0.00 | 0.00 | 66 | 1018.6 |
| 20260504014525 | 62 | 216 | 0.0 | 0.0 | 0.00 | 0.00 | 0.00 | 67 | 1018.6 |
| 20260504013012 | 63 | 216 | 0.0 | 0.0 | 0.00 | 0.00 | 0.00 | 64 | 1018.4 |
| 20260504011516 | 64 | 216 | 0.0 | 0.0 | 0.00 | 0.00 | 0.00 | 63 | 1018.2 |
| 20260504010020 | 65 | 216 | 0.0 | 0.0 | 0.00 | 0.00 | 0.00 | 61 | 1018.3 |
| 20260504004528 | 67 | 216 | 0.0 | 0.0 | 0.00 | 0.00 | 0.00 | 58 | 1018.1 |
| 20260504003028 | 69 | 216 | 0.0 | 0.0 | 0.00 | 0.00 | 0.00 | 53 | 1018.1 |
| 20260504001513 | 70 | 216 | 0.0 | 1.7 | 0.00 | 0.00 | 0.00 | 51 | 1018.1 |
| 20260504000020 | 71 | 234 | 1.7 | 4.3 | 0.00 | 0.00 | 0.00 | 48 | 1018.1 |
| 20260503234525 | 71 | 219 | 0.0 | 3.5 | 0.00 | 0.00 | 0.00 | 47 | 1018.1 |
| 20260503233026 | 72 | 174 | 1.7 | 7.8 | 0.00 | 0.00 | 0.00 | 44 | 1018.3 |
| 20260503231528 | 74 | 229 | 0.9 | 4.3 | 0.00 | 0.00 | 0.00 | 45 | 1018.2 |
| 20260503230014 | 75 | 240 | 1.7 | 4.3 | 0.00 | 0.00 | 0.00 | 42 | 1018.3 |
| 20260503224519 | 76 | 219 | 2.6 | 5.2 | 0.00 | 0.00 | 0.00 | 39 | 1018.4 |
| 20260503223026 | 75 | 224 | 2.6 | 7.8 | 0.00 | 0.00 | 0.00 | 39 | 1018.4 |
| 20260503221533 | 75 | 249 | 1.7 | 5.2 | 0.00 | 0.00 | 0.00 | 39 | 1018.5 |
| 20260503220030 | 75 | 266 | 1.7 | 7.8 | 0.00 | 0.00 | 0.00 | 39 | 1018.6 |
| 20260503214518 | 75 | 212 | 2.6 | 5.2 | 0.00 | 0.00 | 0.00 | 39 | 1018.7 |
| 20260503213030 | 75 | 148 | 1.7 | 7.8 | 0.00 | 0.00 | 0.00 | 41 | 1018.9 |
| 20260503211525 | 75 | 229 | 2.6 | 6.1 | 0.00 | 0.00 | 0.00 | 39 | 1019.1 |
| 20260503210029 | 75 | 88 | 2.6 | 6.1 | 0.00 | 0.00 | 0.00 | 38 | 1019.4 |